User: anonymous   Login
Location: Unspecified
(0.0000°N, 0.0000°E)
Time: 11:56:56
(UTC+00:00)
Language:

NOSS 8 (H) - Orbit

View from above orbital plane
View from above orbital plane
View from above satellite
View from above satellite

Ground track
Ground track

The orbit data is extracted from the following two-line orbital elements,

1 18025U 87043H   18302.74250752 0.00000600  00000-0  66981-4 0    07
2 18025  63.3115 260.7564 0904793  49.6213 310.3787 13.45004735    05
Epoch (UTC): 29 October 2018 17:49:12
Eccentricity: 0.0904793
inclination: 63.3115°
perigee height: 415 km
apogee height: 1766 km
right ascension of ascending node: 260.7564°
argument of perigee: 49.6213°
revolutions per day: 13.45004735
mean anomaly at epoch: 310.3787°
orbit number at epoch: 0

The dashed part of the orbit path shows where the satellite is in the earth's shadow,  

DLR